SCP
0 0 0 0 0 0 0 0 0 0 0 0 0 0 0 0 0 0 0 0 0 0 1 1 1 1 1 1 1 1 1 1 1 1 2 2 1 1 1 1 1 1 1
0 0 0 0 0 0 0 0 0 0 0 0 0 0 0 0 0 0 0 0 0 0 0 0 1 1 1 1 1 1 1 1 1 1 1 1 1 1 1 1 1 1 1
0 0 0 0 0 0 0 0 0 0 0 0 0 0 0 0 0 0 0 0 0 0 0 0 0 1 1 1 1 1 1 1 1 1 1 1 1 1 1 1 1 1 1
0 0 0 0 0 0 0 0 0 0 0 0 0 0 0 0 0 0 0 0 0 0 0 0 0 0 1 1 1 1 1 1 1 0 0 0 1 1 1 1 1 1 1
0 0 0 0 0 0 0 0 0 0 0 0 0 0 0 0 0 0 0 0 0 0 0 0 0 0 0 1 1 1 1 1 1 0 0 0 1 1 1 0 0 1 1
0 0 0 0 0 0 0 0 0 0 0 0 0 0 0 0 0 0 0 0 0 0 0 0 0 0 0 0 1 1 1 1 1 0 0 0 0 1 1 0 0 0 1
0 0 0 0 0 0 0 0 0 0 0 0 0 0 0 0 0 0 0 0 0 0 0 0 0 0 0 0 0 0 0 0 0 1 0 0 0 0 0 1 1 1 1
0 0 0 0 0 0 0 0 0 0 0 0 0 0 0 0 0 0 0 0 0 0 0 0 0 0 0 0 0 0 0 0 1 1 1 1 0 0 0 0 0 1 1
0 0 0 0 0 0 0 0 0 0 0 0 0 0 0 0 0 0 0 0 0 0 0 0 0 0 0 0 0 0 1 1 1 1 1 1 0 0 0 0 0 0 0
0 0 0 0 0 0 0 0 0 0 0 0 0 0 0 0 0 0 0 0 0 0 0 0 0 0 0 0 0 0 0 1 1 1 1 1 0 0 0 0 0 0 0
0 0 0 0 0 0 0 0 0 0 0 0 0 0 0 0 0 0 0 0 0 0 0 0 0 0 0 0 0 0 0 0 0 0 0 0 0 0 0 0 0 0 0
0 0 0 0 0 0 0 0 0 0 0 0 0 0 0 0 0 0 0 0 0 0 0 0 0 0 0 0 0 0 0 0 0 0 0 0 0 0 0 0 0 0 0
0 0 0 0 0 0 0 0 0 0 0 0 0 0 0 0 0 0 0 0 0 0 0 0 0 0 0 0 0 0 0 0 0 0 0 0 0 0 0 0 0 0 0
0 0 0 0 0 0 0 0 0 0 0 0 0 0 0 0 0 0 0 0 0 0 0 0 0 0 0 0 0 0 0 0 0 0 0 0 0 0 0 0 0 0 0
0 0 0 0 0 0 0 0 0 0 0 0 0 0 0 0 0 0 0 0 0 0 0 0 0 0 0 0 0 0 0 0 0 0 0 0 0 0 0 0 0 0 0
0 0 0 0 0 0 0 0 0 0 0 0 0 0 0 0 0 0 0 0 0 0 0 0 0 0 0 0 0 0 0 0 0 0 0 0 0 0 0 0 0 0 0
0 0 0 0 0 0 0 0 0 0 0 0 0 0 0 0 0 0 0 0 0 0 0 0 0 0 0 0 0 0 0 0 0 0 0 0 0 0 0 0 0 0 0
0 0 0 0 0 0 0 0 0 0 0 0 0 0 0 0 0 0 0 0 0 0 0 0 0 0 0 0 0 0 0 0 0 0 0 0 0 0 0 0 0 0 0
0 0 0 0 0 0 0 0 0 0 0 0 0 0 0 0 0 0 0 0 0 0 0 0 0 0 0 0 0 0 0 0 0 0 0 0 0 0 0 0 0 0 0
0 0 0 0 0 0 0 0 0 0 0 0 0 0 0 0 0 0 0 0 0 0 0 0 0 0 0 0 0 0 0 0 0 0 0 0 0 0 0 0 0 0 0
0 0 0 0 0 0 0 0 0 0 0 0 0 0 0 0 0 0 0 0 0 0 0 0 0 0 0 0 0 0 0 0 0 0 0 0 0 0 0 0 0 0 0
0 0 0 0 0 0 0 0 0 0 0 0 0 0 0 0 0 0 0 0 0 0 0 0 0 0 0 0 0 0 0 0 0 0 0 0 0 0 0 0 0 0 0
0 0 1 1 1 0 0 0 0 0 0 0 0 0 0 0 0 0 0 0 0 0 0 0 0 0 0 0 0 0 0 0 0 0 0 0 0 0 0 0 0 0 0
1 1 1 1 1 0 0 0 0 0 0 0 0 0 0 0 0 0 0 0 0 0 0 0 0 0 0 0 0 0 0 0 0 0 0 0 0 0 0 0 0 0 0
1 1 1 1 1 0 0 0 0 0 0 0 0 0 0 0 0 0 0 0 0 0 0 0 0 0 0 0 0 0 0 0 0 0 0 0 0 0 0 0 0 0 0
1 1 1 1 1 0 0 0 0 0 0 0 0 0 0 0 0 0 0 0 0 0 0 0 0 0 0 0 0 0 0 0 0 0 0 0 0 0 0 0 0 0 0
Wind_Speed
2 2 2 2 3 3 3 3 3 4 4 4 4 4 4 4 4 4 4 9 10 10 10 10 10 10 11 11 10 10 10 10 10 10 10 10 10 10 10 10 9 9 9
2 3 3 3 3 3 3 3 3 4 3 4 4 4 4 4 5 5 5 7 11 10 10 10 10 10 11 11 10 10 10 10 10 10 10 10 11 11 11 11 10 10 9
3 3 3 2 2 3 3 3 4 4 4 4 4 4 4 4 4 5 5 4 5 9 11 10 10 10 10 10 10 10 10 10 9 9 10 10 10 10 11 11 10 10 10
3 3 3 2 2 3 3 3 3 4 3 3 3 4 4 4 5 4 4 5 4 5 8 11 10 9 10 10 10 10 10 10 9 9 10 10 10 10 10 10 10 10 10
3 4 3 2 2 3 2 3 3 3 3 3 3 4 4 4 4 4 5 5 4 5 4 8 11 10 9 9 9 10 10 10 10 9 9 9 9 9 9 9 9 9 9
4 4 3 2 2 3 2 2 3 3 2 2 4 4 4 4 4 4 4 4 4 5 5 5 5 7 10 9 9 9 8 9 9 9 9 9 9 8 8 8 8 8 8
3 3 3 3 2 2 2 2 3 3 2 1 2 3 3 4 5 4 4 4 5 5 5 5 4 4 4 9 9 9 8 8 8 9 9 9 8 8 7 7 7 7 8
3 3 3 3 2 2 3 2 3 2 1 1 2 2 2 4 4 4 3 4 4 4 5 5 5 5 4 3 6 9 8 8 8 8 8 8 8 8 8 8 8 8 8
2 3 3 3 2 3 3 2 2 3 2 1 1 2 3 1 1 3 3 3 3 3 3 3 4 4 4 4 3 6 8 7 7 7 7 7 7 7 7 7 7 7 7
2 2 2 2 2 2 2 2 2 2 3 1 1 1 1 3 3 0 2 2 3 3 3 3 3 3 4 3 4 6 7 7 6 6 6 6 5 5 6 6 6 6 6
1 2 3 2 2 2 2 2 2 2 2 2 2 1 2 2 2 2 0 2 2 2 2 2 2 2 3 3 2 4 6 6 6 5 5 5 5 4 5 5 5 5 5
1 2 2 2 2 2 2 2 2 3 2 2 2 2 2 2 2 2 2 1 1 2 2 1 1 1 1 2 2 4 4 5 4 4 4 4 4 4 4 4 4 4 4
1 2 2 2 2 2 2 2 2 2 2 3 3 2 2 2 2 3 3 1 1 2 2 1 1 1 1 1 2 3 2 3 3 3 3 3 4 4 4 4 4 4 4
2 2 2 3 3 3 3 2 2 2 2 2 2 2 2 2 2 3 3 3 1 1 1 2 1 1 1 1 1 2 1 1 2 2 2 2 3 3 3 4 4 3 3
2 2 3 3 3 3 3 3 2 2 2 2 2 2 2 1 2 2 2 3 4 2 2 3 2 2 1 1 1 1 1 2 2 2 2 2 2 2 3 3 3 3 3
2 2 2 2 2 2 3 3 2 2 2 2 1 2 2 1 2 2 2 2 2 3 2 2 2 2 1 1 1 1 2 3 3 2 2 2 3 3 3 4 3 3 3
2 2 2 3 3 3 3 3 3 3 3 2 2 2 2 2 2 2 2 2 2 2 2 2 1 1 1 1 1 1 1 1 2 3 3 3 3 4 4 4 4 4 4
2 2 2 2 3 3 3 4 4 3 4 4 3 3 2 2 2 2 2 2 2 2 3 2 1 1 1 2 1 1 1 1 2 3 3 3 4 4 4 4 4 5 5
2 1 2 2 3 3 3 3 4 4 4 4 4 4 3 3 3 2 3 3 2 2 2 2 1 1 1 1 1 1 2 2 2 2 3 3 4 4 4 5 5 5 5
2 2 2 3 3 3 3 3 3 3 3 3 3 4 4 4 4 4 3 3 3 2 2 2 1 1 1 1 0 1 2 2 2 2 2 3 4 4 4 4 5 4 4
2 2 2 2 2 2 3 3 4 4 3 3 3 3 4 4 5 4 3 4 4 3 2 2 2 1 1 1 2 1 2 2 3 1 1 2 2 2 3 4 5 5 5
1 1 2 2 2 3 4 5 4 3 3 4 3 3 3 4 5 6 6 5 6 5 4 3 3 3 4 3 2 2 1 1 3 1 1 2 1 2 3 3 5 5 5
2 2 2 2 3 4 4 5 6 4 3 4 4 3 3 3 4 3 4 4 5 6 7 5 5 5 5 5 4 3 3 3 3 2 1 2 2 2 3 3 6 5 4
2 2 2 2 3 4 5 5 5 4 3 4 4 4 4 3 3 4 3 2 3 4 6 5 5 6 5 5 6 5 4 2 2 1 2 2 2 2 2 3 5 5 4
2 2 2 2 3 4 5 4 3 2 2 3 3 3 4 4 6 5 4 3 3 4 5 6 6 5 5 5 4 3 2 2 2 2 2 2 2 2 2 3 3 4 4
3 2 2 2 3 4 5 4 3 2 2 2 2 3 5 5 5 6 4 4 5 5 3 3 3 4 4 4 7 5 5 4 2 3 2 2 2 1 2 2 2 2 2
Wind_Direction
87 74 65 54 55 61 65 61 62 63 61 58 53 53 44 40 31 24 19 41 55 64 70 74 76 76 75 76 81 85 85 82 78 75 75 75 72 68 65 68 71 70 70
95 88 79 65 58 63 70 73 73 71 63 61 54 48 43 41 39 35 29 28 37 48 58 64 68 73 75 76 78 80 81 81 79 77 76 76 71 67 64 64 65 67 67
102 101 94 80 67 68 74 72 65 63 62 57 49 41 43 40 40 37 32 28 26 34 42 53 60 68 71 75 78 79 80 79 80 79 77 75 71 67 64 62 63 61 61
104 99 95 86 78 81 80 80 69 69 59 54 48 35 34 36 37 37 37 33 29 27 26 40 51 61 68 71 73 78 79 78 79 81 78 73 71 68 66 63 62 61 61
109 104 100 89 89 89 79 91 72 80 78 65 60 48 33 33 29 37 37 32 32 32 26 28 38 48 59 65 70 74 76 76 77 82 82 74 71 69 65 64 61 60 59
126 119 118 117 115 109 89 84 86 69 81 77 73 58 39 32 33 33 32 34 33 35 35 32 27 30 43 57 64 69 74 76 75 78 79 75 72 68 66 63 59 58 59
126 129 133 134 129 122 123 117 104 88 72 68 77 51 29 35 43 33 26 34 34 33 38 35 31 27 24 39 50 61 66 68 70 72 73 72 69 67 65 61 57 56 59
138 140 140 148 146 130 116 120 124 114 85 61 99 89 32 8 15 28 26 32 25 26 34 37 34 32 28 22 35 52 55 60 65 71 72 70 69 67 62 57 57 56 56
141 135 143 150 149 146 153 160 151 138 142 66 70 124 134 192 326 354 17 28 20 26 20 25 35 31 29 27 19 36 50 54 62 67 67 65 64 62 60 55 52 50 49
140 140 144 148 155 159 161 176 159 145 138 140 66 55 112 146 141 16 344 359 11 23 14 21 25 24 23 23 31 38 47 48 55 59 59 56 55 53 54 51 45 43 43
151 157 166 166 163 167 173 176 155 153 154 154 152 136 95 70 95 136 214 325 348 346 359 6 12 9 10 15 17 35 42 42 45 47 48 48 49 48 49 48 43 42 43
204 195 180 179 178 175 179 186 172 168 171 158 153 151 152 148 161 146 162 227 288 304 320 343 351 337 346 353 9 39 42 39 39 39 37 35 37 37 33 36 38 36 37
222 218 196 193 191 189 181 168 161 175 175 170 173 177 172 168 152 148 141 165 230 296 316 309 282 304 323 341 340 21 34 34 27 28 28 25 24 21 12 14 20 24 27
222 218 202 200 197 184 175 164 164 180 167 179 182 174 166 176 161 159 156 148 135 318 309 279 287 262 288 290 312 360 341 13 6 359 8 6 1 0 357 352 353 360 4
216 203 200 197 190 179 172 164 173 179 156 174 184 180 175 177 167 169 155 156 154 177 254 258 262 269 268 257 294 323 300 307 326 324 321 324 324 327 327 326 326 331 335
215 192 196 195 187 178 174 170 176 175 159 178 178 172 185 181 166 161 164 166 162 164 207 241 241 259 268 265 273 300 281 303 301 299 305 308 307 305 304 300 298 301 303
212 200 203 201 196 187 180 177 189 179 178 183 181 178 196 182 167 168 166 168 171 157 186 253 260 280 241 273 309 308 284 292 297 289 285 288 293 295 296 294 290 287 285
219 214 202 201 206 199 190 191 201 197 192 194 196 181 198 182 178 181 181 189 189 182 174 210 239 258 252 249 261 273 288 281 274 278 277 283 285 288 291 291 288 282 277
222 217 199 209 213 206 199 203 202 204 204 203 198 193 199 180 197 198 195 197 197 186 169 176 213 230 270 278 314 297 295 304 286 280 277 283 286 286 290 290 285 279 275
209 216 219 222 218 209 202 204 205 208 209 211 208 204 200 199 204 200 201 196 180 172 164 166 193 227 242 296 261 262 296 306 295 306 306 298 293 290 289 289 285 280 273
218 213 216 238 235 215 211 202 205 207 206 215 219 216 215 215 216 206 207 194 179 175 170 174 194 204 226 213 230 227 245 289 288 274 300 296 295 295 295 291 287 284 282
229 212 213 220 232 245 243 216 204 207 204 205 216 226 228 223 230 226 227 202 184 181 184 183 197 211 227 217 203 212 204 227 277 257 231 279 267 269 275 274 283 290 284
218 224 229 224 238 254 254 241 223 204 206 212 213 215 228 226 217 219 227 218 211 212 197 185 197 214 212 207 192 208 212 210 233 238 184 262 268 268 271 274 284 285 283
224 235 245 246 251 270 266 253 237 210 215 223 220 215 218 227 217 201 196 212 228 229 219 208 211 222 217 203 199 204 208 213 265 255 180 236 261 267 285 287 287 286 289
223 235 248 244 250 270 271 260 227 198 221 236 235 226 218 223 231 204 184 207 237 254 244 233 235 240 238 221 193 157 160 173 253 251 195 207 246 274 282 280 287 292 300
219 227 254 251 251 260 269 257 225 195 216 236 243 243 233 230 235 206 191 197 228 246 235 240 244 252 242 222 205 192 183 185 208 247 213 195 214 224 290 277 280 296 295